Location: Livorno
(43.5500°N, 10.3170°E)
Time: 20:00:55
(UTC+01:00)

Envisat - Pass Details

Date: 28 October 2020
Orbit: 764 x 766 km, 98.1° (Epoch: 05 December)

Event Time Altitude Azimuth Distance (km) Brightness Sun altitude
Rises 18:38:06 0° 207° (SSW) 3,220 6.7 -15.6°
Reaches altitude 10° 18:41:05 10° 225° (SW) 2,300 6.2 -16.2°
Maximum altitude 18:44:34 19° 269° (W) 1,787 6.0 -16.8°
Drops below altitude 10° 18:48:05 10° 313° (NW) 2,311 6.1 -17.4°
Sets 18:51:06 0° 331° (NNW) 3,243 6.6 -18.0°
